Location: Newark
(34.9500°N, 139.9667°E)
Time: 00:58:15
(UTC+00:00)

Altair - Pass Details

Date: 12 December 2019
Orbit: 1502 x 1682 km, 47.2° (Epoch: 19 January)

Event Time Altitude Azimuth Distance (km) Brightness Sun altitude
Rises 12:10:25 0° 257° (WSW) 4,797 10.5 -56.7°
Reaches altitude 10° 12:13:42 10° 263° (W) 3,787 9.9 -57.4°
Enters shadow 12:16:03 19° 269° (W) 3,100 9.3 -57.8°
